Home > Weather > Letterkenny > Past weeks

Flag for Ireland Past Weather in Letterkenny, Ireland — Yesterday and Last 2 Weeks

Now
55 °F

Cool.


Feels Like: 55 °F
Forecast: 52 / 61 °F
Wind: 3 mph from Southwest

Location: Castlederg

Current Time: Jul 24, 2016 at 2:07:09 AM

Latest Report: Jul 24, 2016 at 1:00 AM


Visibility: 25 mi

Pressure: 30.06 "Hg

Humidity: 91%

Dew Point: 52 °F

Location of LetterkennyLocation

Past Weather in Letterkenny — Graph

°F

Letterkenny Temperature Yesterday

Maximum temperature yesterday: 65 °F (at 4:00 PM)
Minimum temperature yesterday: 53 °F (at 12:00 AM)
Average temperature yesterday: 59 °F

High & Low Weather Summary for the Past Weeks

 TemperatureHumidityPressure
High81 °F (Jul 19, 4:00 PM)98% (Jul 14, 3:00 AM)30.29 "Hg (Jul 14, 3:00 AM)
Low48 °F (Jul 14, 1:00 AM)54% (Jul 18, 6:00 PM)29.35 "Hg (Jul 10, 6:00 PM)
Average60 °F83%29.94 "Hg
* Reported Jul 9 12:00 AM — Jul 24 12:00 AM, Letterkenny, Weather by CustomWeather, © 2016

Note: Actual official high and low records may vary slightly from our data, if they occured in-between our weather recording intervals... More about our weather records

Advertising

Letterkenny Weather History for the Previous 24 Hours

Scroll right to see more
 ConditionsComfort  
Time TempWeatherWind HumidityBarometerVisibility
12:00 AM
Sun, Jul 24
56 °FCool.6 mph90%30.08 "Hg11 mi
11:00 PM
Sat, Jul 23
57 °FCool.7 mph88%30.08 "Hg17 mi
10:00 PM58 °FCool.5 mph86%30.08 "Hg25 mi
9:00 PM59 °FCool.8 mph82%30.06 "Hg28 mi
8:00 PM61 °FCool.9 mph80%30.06 "Hg31 mi
7:00 PM63 °FMild.14 mph75%30.04 "Hg22 mi
6:00 PM64 °FMild.15 mph75%30.03 "Hg22 mi
5:00 PM64 °FMild.12 mph83%30.03 "Hg31 mi
4:00 PM65 °FMild.9 mph84%30.02 "Hg22 mi
3:00 PM62 °FMild.13 mph87%30.03 "Hg16 mi
2:00 PM62 °FCool.12 mph84%30.03 "Hg25 mi
1:00 PM62 °FCool.12 mph85%30.03 "Hg22 mi
12:00 PM61 °FRain. Cloudy.8 mph85%30.03 "Hg19 mi
11:00 AM62 °FCool.9 mph79%30.03 "Hg28 mi
10:00 AM61 °FCool.8 mph85%30.05 "Hg31 mi
9:00 AM59 °FCool.6 mph89%30.05 "Hg25 mi
8:00 AM58 °FRain showers. Cloudy.5 mph93%30.06 "Hg18 mi
7:00 AM56 °FCool.2 mph97%30.06 "Hg13 mi
6:00 AM55 °FCool.3 mph97%30.06 "Hg9 mi
5:00 AM54 °FCool.No wind97%30.07 "Hg13 mi
4:00 AM54 °FCool.No wind97%30.09 "Hg12 mi
3:00 AM53 °FCool.2 mph97%30.10 "Hg11 mi
2:00 AM53 °FFog.1 mph95%30.11 "Hg7 mi
Weather by CustomWeather, © 2016

See weather overviewHow to use our weather pages